Location: Budapest
(47.4979°N, 19.0402°E)
Time: 14:00:26
(UTC+01:00)

ISS - Visible Passes

Search period start: 17 February 2019 00:00
Search period end: 27 February 2019 00:00
Orbit: 403 x 411 km, 51.6° (Epoch: 17 February)

Date Brightness Start Highest point End Pass type
(mag) Time Alt. Az. Time Alt. Az. Time Alt. Az.
22 Feb -0.7 05:51:04 10° SSE 05:52:45 13° SE 05:54:25 10° ESE visible
24 Feb -1.8 05:43:09 10° SSW 05:45:59 27° SE 05:48:50 10° E visible
25 Feb -1.2 04:52:29 10° S 04:54:40 17° SE 04:56:51 10° E visible
26 Feb -3.2 05:36:06 10° SW 05:39:19 56° SSE 05:42:32 10° ENE visible
